Location: Wagman Observatory
(40.6260°N, 79.8130°W)
Time: 05:25:09
(UTC-04:00)

Daily predictions for brighter satellites

Satellite Brightness Start Highest point End
(mag) Time Altitude Azimuth Time Altitude Azimuth Time Altitude Azimuth
COSMOS 2428 4.2 00:00:27 10° NW 00:04:56 25° WSW 00:06:47 21° SW
Cosmos 1455 3.1 00:04:04 10° NNW 00:07:33 39° W 00:07:33 39° W
Cosmos 1869 3.8 00:03:43 10° NNW 00:07:40 53° W 00:07:40 53° W
Cosmos 2297 Rocket 2.1 00:10:25 52° SSW 00:11:53 90° ESE 00:17:35 10° NNE
H-2A R/B 3.5 00:10:13 23° SW 00:12:02 29° W 00:16:41 10° NW
GEOS 3 Rocket 4.1 00:11:06 40° E 00:12:40 55° NE 00:17:44 10° NNW
ATLAS 3B R/B 3.0 00:06:30 10° NNW 00:13:28 61° NE 00:16:06 37° ESE
Lacrosse 4 Rocket 2.2 00:15:02 10° NNW 00:19:18 45° ENE 00:19:35 44° ENE
Meteor 1-26 Rocket 4.3 00:14:04 10° N 00:19:37 61° ENE 00:20:33 53° ESE
Cosmos 2219 Rocket 3.0 00:16:23 10° NW 00:21:27 36° WSW 00:22:26 33° SW
Cosmos 1269 Rocket 3.9 00:16:09 10° NNW 00:21:30 83° ENE 00:22:09 69° SE
Cosmos 1869 Rocket 3.5 00:21:53 77° ENE 00:21:53 77° ENE 00:26:13 10° N
CZ-2C R/B 4.4 00:20:14 10° NE 00:23:25 17° E 00:23:25 17° E
NOSS 2-3 (E) 4.4 00:27:22 47° E 00:27:22 47° E 00:32:02 10° NE
ALOS 2 3.1 00:27:29 48° ENE 00:27:29 48° ENE 00:31:40 10° N
Cosmos 389 Rocket 3.8 00:24:28 10° N 00:26:58 38° NNE 00:26:58 38° NNE
BREEZE-M DEB (TANK) 4.3 00:26:47 10° WNW 00:27:42 24° WNW 00:27:42 24° WNW
Landsat 5 4.4 00:33:06 42° ENE 00:33:10 42° ENE 00:37:25 10° N
Terra 3.9 00:34:39 15° WSW 00:35:42 16° W 00:38:37 10° NW
Cosmos 1980 4.5 00:31:46 10° NW 00:36:56 38° WSW 00:37:35 36° WSW
Cosmos 44 Rocket 3.8 00:40:52 49° E 00:40:52 49° E 00:45:21 10° NE
H-2A R/B 2.9 00:36:39 10° NNE 00:40:11 57° NE 00:40:11 57° NE
Cosmos 1689 Rocket 4.1 00:42:10 30° NNE 00:42:10 30° NNE 00:44:08 10° N
CZ-4B R/B 2.9 00:44:09 37° NNE 00:44:09 37° NNE 00:46:29 10° N
COSMOS 2455 2.7 00:38:52 10° NNW 00:44:55 82° WSW 00:45:49 66° S
Cosmos 1125 Rocket 4.0 00:46:29 45° WSW 00:47:41 56° WNW 00:52:55 10° N
Cosmos 1900 4.2 00:42:57 10° NNW 00:47:46 76° W 00:47:46 76° W
Cosmos 2074 Rocket 3.9 00:47:39 61° S 00:48:51 82° E 00:55:11 10° N
Cosmos 1048 Rocket 4.0 00:44:35 10° NNW 00:49:56 70° WSW 00:50:14 68° SW
Cosmos 2237 Rocket 3.2 00:45:02 10° NW 00:50:02 32° WSW 00:50:31 32° WSW
Meteor 2-3 Rocket 3.6 00:49:35 69° SSE 00:50:16 80° E 00:56:01 10° NNE
BREEZE-M TANK 3.8 00:39:05 10° W 00:50:20 57° NNW 00:53:39 10° ENE
NOSS 2-3 (C) 3.8 00:53:45 83° SE 00:53:50 84° ESE 00:59:29 10° NE
SeaSat 1 3.0 00:55:21 45° WSW 00:55:21 45° WSW 00:59:52 10° NW
Okean 1-7 3.5 00:51:57 10° NNW 00:55:37 52° WNW 00:55:37 52° WNW
Cosmos 1892 4.0 00:58:06 36° NE 00:58:06 36° NE 01:00:37 10° NNE
Cosmos 2327 Rocket 4.5 00:57:09 60° SSW 00:58:27 85° W 01:04:54 10° N
Aureole 2 Rocket 4.4 01:01:18 10° N 01:02:51 26° N 01:02:51 26° N
CZ-4C R/B 4.0 00:58:59 10° NNW 01:05:26 38° NE 01:12:08 11° ESE
Helios 1A Rocket 3.5 01:03:35 10° NNE 01:06:57 54° NE 01:06:57 54° NE
Meteor 2-7 Rocket 4.5 01:03:31 10° N 01:09:03 89° ENE 01:09:31 76° SSE
Cosmos 1674 Rocket 4.1 01:09:21 10° N 01:13:19 53° ENE 01:13:19 53° ENE
In-Cosmos 22 Rocket 4.5 01:12:49 52° WSW 01:13:44 59° WNW 01:19:25 10° N
NOSS 2-3 (D) 4.1 01:14:26 63° W 01:15:03 70° NW 01:20:42 10° NNE
Cosmos 2154 Rocket 4.1 01:14:44 56° SE 01:15:46 65° E 01:22:00 10° NNE
ASTEX 1 3.5 01:12:56 10° N 01:17:46 64° W 01:17:51 64° W
Cosmos 1782 3.7 01:15:53 10° N 01:18:59 45° NE 01:18:59 45° NE
Cosmos 1238 Rocket 4.2 01:18:50 10° N 01:21:56 31° NE 01:21:56 31° NE
Cosmos 158 Rocket 4.0 01:19:49 10° NNW 01:24:59 65° W 01:24:59 65° W
Cosmos 1825 4.2 01:26:16 21° ENE 01:26:16 21° ENE 01:28:23 10° NE
Cosmos 921 Rocket 3.9 01:26:24 41° ENE 01:26:24 41° ENE 01:29:30 10° NNE
Cosmos 1340 Rocket 3.6 01:26:58 48° NNW 01:26:58 48° NNW 01:29:59 10° N
Cosmos 2184 Rocket 4.4 01:26:37 43° WSW 01:28:02 51° WNW 01:34:04 10° N
Cosmos 1908 Rocket 4.3 01:29:40 45° ENE 01:29:40 45° ENE 01:33:14 10° NNE
Cosmos 1932 4.4 01:23:12 10° NNW 01:29:39 88° WSW 01:30:56 60° SSE
Cosmos 2084 Rocket 4.3 01:33:17 41° NNE 01:33:17 41° NNE 01:35:51 10° NE
Cosmos 2263 Rocket 3.3 01:35:36 29° ESE 01:35:46 29° ESE 01:40:37 10° NE
FALCON 9 R/B 3.9 01:29:34 10° W 01:36:25 27° WSW 01:36:25 27° WSW
SL-16 R/B 3.5 01:37:11 10° NW 01:41:37 27° W 01:41:37 27° W
Cosmos 2227 4.4 01:41:58 54° WSW 01:42:55 63° WNW 01:48:33 10° NNE
ATLAS 2AS CENTAUR R/B 4.3 01:36:31 10° WSW 01:43:24 35° NW 01:50:42 10° NNE
Cosmos 2341 Rocket 3.9 01:44:41 61° S 01:45:56 88° E 01:52:21 10° N
CZ-2C R/B 3.3 01:46:35 59° SE 01:47:39 75° ENE 01:53:19 10° N
Sich 1 Rocket 3.8 01:49:59 68° NW 01:49:59 68° NW 01:54:08 10° N
Meteor 1-27 Rocket 3.7 01:44:17 10° N 01:50:10 79° E 01:51:04 64° SSE
Cosmos 44 3.4 01:51:01 79° SW 01:51:22 88° NW 01:56:52 10° NNE
Cosmos 2251 Rocket 3.9 01:47:53 10° NNW 01:52:48 48° W 01:52:48 48° W
Lacrosse 4 Rocket 3.8 01:54:41 10° WNW 01:55:56 15° WNW 01:55:56 15° WNW
Cosmos 962 Rocket 4.4 01:57:34 60° SW 01:58:39 75° W 02:04:47 10° N
Cosmos 1862 3.8 02:02:07 59° N 02:02:07 59° N 02:05:25 10° N
Cosmos 1733 Rocket 4.4 02:02:26 30° WNW 02:02:26 30° WNW 02:06:17 10° NNW
ATLAS 3B R/B 3.8 01:58:08 10° NW 02:03:20 26° WSW 02:03:20 26° WSW
CZ-2C R/B 2.9 01:59:12 10° N 02:04:18 54° WNW 02:04:56 51° W
SL-8 Rocket 4.0 02:05:15 55° SSE 02:06:39 76° E 02:13:00 10° N
Cosmos 1943 3.2 02:01:24 10° NNW 02:07:07 77° ENE 02:08:22 55° SE
USA 238 DEB 3.8 02:01:54 10° NW 02:08:43 54° WSW 02:09:41 50° SW
USA 238 3.8 02:02:00 10° NW 02:08:49 55° WSW 02:09:48 51° SSW
Okean 3 3.6 02:08:08 10° N 02:12:06 74° N 02:12:06 74° N
Cosmos 2218 Rocket 4.1 02:10:59 52° SSE 02:12:30 70° E 02:18:48 10° NNE
H-2A ROCKET BODY 4.4 01:52:37 10° W 02:14:26 33° SW 02:14:26 33° SW
Cosmos 1603 4.4 02:10:27 10° NW 02:15:27 38° W 02:15:27 38° W
Cosmos 1606 3.8 02:12:04 10° NNW 02:14:46 38° NW 02:14:46 38° NW
Cosmos 1378 Rocket 3.9 02:12:02 10° NNW 02:15:49 55° WNW 02:15:49 55° WNW
Meteor 2-13 Rocket 4.4 02:17:20 58° SSW 02:18:36 78° W 02:24:45 10° N
Cosmos 1242 Rocket 4.2 02:16:55 10° NNE 02:19:51 27° ENE 02:19:51 27° ENE
Iridium 4 Rocket 4.1 02:23:53 10° NNE 02:28:20 44° E 02:29:32 37° ESE
Cosmos 2366 rocket 3.9 02:27:26 52° S 02:29:01 82° E 02:35:13 10° N
USA 234 3.5 02:23:26 10° ESE 02:29:54 68° NE 02:36:24 10° NW
Okean 2 Rocket 3.1 02:30:45 69° W 02:30:45 69° W 02:35:16 10° N
Cosmos 1184 Rocket 3.9 02:34:38 45° NNE 02:34:38 45° NNE 02:37:07 10° NNE
Cosmos 1782 Rocket 4.1 02:37:33 47° WNW 02:37:33 47° WNW 02:41:43 10° N
Meteor 2-8 Rocket 4.5 02:35:35 10° N 02:41:41 77° E 02:43:58 41° SSE
NOSS 3-2 (C) 3.9 02:35:03 10° NW 02:42:38 88° WSW 02:48:50 19° SSE
NPP 4.2 02:40:57 10° NNE 02:46:11 49° E 02:47:48 37° SSE
SL-08 R/B 4.1 02:47:35 28° SE 02:49:52 50° ENE 02:54:37 10° N
Cosmos 1727 Rocket 3.9 02:44:17 10° N 02:50:33 81° W 02:52:37 45° S
Cosmos 864 Rocket 4.5 02:51:33 46° SSW 02:53:22 69° W 02:59:31 10° N
CZ-4C R/B 3.0 02:47:19 10° NW 02:54:21 56° WSW 02:57:14 37° S
Cosmos 1975 Rocket 4.2 02:56:54 10° NNW 03:00:19 29° W 03:00:19 29° W
Cosmos 1825 4.1 03:01:12 20° WNW 03:01:12 20° WNW 03:03:45 10° NNW
Cosmos 1812 3.7 02:57:20 10° N 03:01:05 42° E 03:02:06 34° ESE
ERS-2 2.7 02:58:22 10° NNE 03:01:58 47° E 03:02:13 46° ESE
Cosmos 1300 Rocket 4.3 03:02:44 35° SE 03:03:53 44° E 03:08:02 10° NNE
NOSS 3-4 (A) 3.9 03:01:26 32° WSW 03:04:21 56° NW 03:10:51 10° NNE
NOSS 3-4 (C) 3.9 03:01:33 32° WSW 03:04:27 56° NW 03:10:56 10° NNE
USA 161 4.1 03:04:08 14° E 03:05:09 16° ENE 03:07:03 10° NNE
Okean 1 4.2 03:03:00 10° N 03:06:50 44° E 03:08:12 31° SE
NOSS 3-2 (A) 4.1 02:59:29 10° NW 03:06:50 55° WSW 03:10:44 30° S
PSLV R/B 3.9 03:03:11 10° N 03:07:14 47° WNW 03:07:38 45° W
Cosmos 1190 Rocket 4.1 03:02:26 10° NNW 03:07:41 75° ENE 03:10:22 29° SSE
CZ-2D R/B 4.2 03:04:58 10° NE 03:08:57 21° E 03:12:57 10° SE
AQUA 4.0 03:04:17 10° NNE 03:09:01 65° ESE 03:10:24 44° SSE
Cosmos 1536 Rocket 3.5 03:08:21 10° NNW 03:12:43 72° W 03:13:24 59° SSW
Cosmos 1371 Rocket 4.4 03:12:16 40° WSW 03:13:50 54° WNW 03:19:06 10° N
RESURS DK-1 2.7 03:13:25 47° W 03:13:59 51° WNW 03:18:03 10° NNE
Cosmos 2056 Rocket 3.5 03:13:32 45° SW 03:15:06 71° WNW 03:20:22 10° NNE
Cosmos 1844 Rocket 3.4 03:14:55 28° SSE 03:17:24 45° ESE 03:22:46 10° NE
Cosmos 2263 Rocket 3.1 03:17:17 28° WSW 03:19:31 39° WNW 03:24:51 10° N
Cosmos 407 Rocket 3.4 03:19:18 10° NNW 03:24:28 84° ENE 03:27:41 24° SSE
IRS-1C 4.1 03:23:37 10° NNE 03:28:59 83° ESE 03:31:24 34° S
Cosmos 2151 Rocket 4.4 03:28:41 33° W 03:29:26 36° WNW 03:33:34 10° N
COSMOS 2406 3.2 03:24:12 10° NNW 03:30:00 90° WNW 03:34:45 16° SSE
Meteor 1-25 Rocket 4.3 03:27:44 37° SSW 03:30:02 69° W 03:35:49 10° N
Cosmos 676 Rocket 4.1 03:25:56 10° NNW 03:31:08 72° ENE 03:35:31 14° SSE
Okean 1-7 Rocket 3.7 03:29:42 10° N 03:34:18 78° E 03:36:41 28° SSE
Cosmos 1000 Rocket 4.4 03:28:57 10° N 03:35:06 82° W 03:38:56 25° S
Cosmos 2278 Rocket 3.6 03:32:46 16° SSE 03:36:29 31° ESE 03:41:25 10° NE
SL-27 R/B 2.4 03:34:11 10° NNW 03:37:51 88° ENE 03:39:04 40° SSE
SL-16 R/B 3.3 03:32:36 10° SE 03:38:37 53° ENE 03:44:38 10° N
Okean 1 Rocket 3.0 03:41:19 39° SSW 03:42:53 75° W 03:47:21 10° N
ATLAS 5 CENTAUR R/B 4.4 03:38:06 10° NNW 03:43:16 30° NE 03:48:43 10° ESE
SAR-Lupe-3 4.4 03:42:08 40° SSE 03:43:21 89° E 03:46:56 10° NNW
IRS-1D 4.1 03:39:30 10° NNE 03:44:28 51° E 03:47:47 20° SSE
Cosmos 1602 4.1 03:45:03 30° SSE 03:46:46 59° E 03:50:34 10° NNE
Okean O Rocket 4.1 03:45:10 10° NE 03:47:49 16° E 03:50:26 10° SE
Cosmos 1867 4.4 03:46:29 10° NW 03:51:05 28° WSW 03:51:47 28° SW
UNK 4.2 03:46:40 24° SSW 03:51:38 51° SSE 03:55:07 10° ENE
NOSS 2-2 (E) 4.0 03:51:36 30° S 03:53:27 54° ESE 03:58:06 10° NE
Cosmos 1605 Rocket 4.2 03:49:43 17° S 03:54:35 67° E 04:00:47 10° NNE
Cosmos 1821 Rocket 4.1 03:52:01 25° SSW 03:55:55 71° W 04:02:20 10° N
GP-B 3.6 03:53:04 10° NNW 03:57:17 43° W 03:58:56 30° SW
Resurs 1-4 Rocket 2.6 03:52:06 10° NNE 03:57:20 56° E 04:01:31 16° S
Meteor 2-4 Rocket 4.5 03:52:18 10° N 03:57:33 49° ENE 04:02:42 10° SSE
Cosmos 2123 Rocket 4.1 03:52:09 10° N 03:58:31 84° E 04:04:50 10° S
Cosmos 1954 Rocket 3.9 03:53:54 10° NNW 03:59:06 83° WSW 04:04:16 10° SSE
Cosmos 1461 4.2 03:57:06 20° S 03:59:53 39° ESE 04:04:12 10° NE
Cosmos 1536 3.1 04:00:52 22° S 04:03:22 68° E 04:07:26 10° NNE
Abrixas rocket 3.7 04:02:23 17° WNW 04:04:31 34° NNW 04:07:38 10° NE
Meteor 2-14 Rocket 4.4 04:03:37 20° SSW 04:07:56 80° W 04:14:02 10° N
Cosmos 1455 Rocket 4.3 04:04:55 10° SSE 04:09:03 38° E 04:13:11 10° NNE
UNKNOWN OBJECT B 3.6 04:08:23 10° NNE 04:12:23 50° E 04:15:49 13° S
USA 234 3.8 04:07:20 10° S 04:13:09 34° SW 04:18:59 10° WNW
Gbstr 26 Del rocket 2.6 04:12:39 26° SW 04:14:45 85° NW 04:18:30 10° NE
Cosmos 1025 Rocket 2.9 04:10:34 10° N 04:14:52 81° W 04:18:38 13° S
Cosmos 1633 2.6 04:13:03 22° S 04:15:17 80° E 04:18:56 10° N
Meteor 2-15 4.4 04:13:05 10° NNW 04:19:13 71° W 04:25:18 10° S
ARIANE 5 R/B 2.5 04:14:54 10° N 04:19:51 66° WNW 04:23:25 19° SSW
ADEOS 4.3 04:15:23 10° N 04:20:14 40° WNW 04:23:30 19° SW
Cosmos 1356 3.7 04:18:16 18° S 04:20:47 68° E 04:24:20 10° NNE
Cosmos 1452 Rocket 4.1 04:18:09 20° SW 04:21:18 42° WNW 04:26:19 10° N
Meteor 1-19 Rocket 4.3 04:16:49 10° NNW 04:22:37 72° W 04:28:25 10° S
MTI 4.1 04:19:20 10° SSE 04:22:38 69° ENE 04:25:56 10° N
SME Rocket 2.8 04:20:12 10° SSE 04:23:56 83° WSW 04:27:59 10° NNW
COSMOS 2487 2.4 04:27:11 10° NNW 04:30:48 75° WSW 04:34:24 10° SSE
UNK 3.8 04:27:23 10° S 04:31:55 59° W 04:36:31 10° NNW
CENTAUR R/B 3.1 04:24:12 10° NW 04:32:01 67° WSW 04:40:13 10° SSE
EO 1 Del DPAF 3.5 04:29:12 14° S 04:32:21 49° W 04:36:09 10° NNW
OPS 6432 4.2 04:30:40 21° SW 04:32:47 87° WNW 04:35:54 10° NE
Cosmos 1420 Rocket 4.1 04:29:24 17° SSW 04:33:25 64° WNW 04:38:42 10° NNE
Tiangong 1 2.6 04:34:49 18° SSW 04:34:49 18° SSW 04:36:22 10° SSE
Cosmos 1544 Rocket 3.5 04:30:35 14° SSW 04:34:22 77° W 04:38:47 10° N
Meteor 1-11 Rocket 4.2 04:30:22 17° SW 04:34:50 49° WNW 04:40:38 10° N
ERS-2 4.5 04:33:54 10° NW 04:35:20 12° WNW 04:36:47 10° W
USA 161 3.3 04:35:20 16° W 04:35:26 16° W 04:37:21 10° NW
MOS 1-B 4.4 04:34:12 10° N 04:40:00 74° WNW 04:45:39 11° SSW
OTV 4 2.5 04:48:06 13° SSW 04:48:06 13° SSW 04:49:02 10° S
Cosmos 1400 Rocket 3.0 04:44:58 14° SSW 04:48:07 50° WNW 04:51:58 10° N
Cosmos 2100 Rocket 4.2 04:42:49 10° S 04:49:03 78° E 04:55:22 10° N
CZ-2D R/B 2.5 04:44:02 10° N 04:49:18 52° WNW 04:54:26 11° SW
Cosmos 1459 Rocket 4.3 04:43:10 10° S 04:49:30 74° E 04:55:48 10° N
Cosmos 1892 Rocket 4.0 04:52:32 10° NNW 04:56:37 41° W 05:00:40 10° SSW
Cosmos 1140 Rocket 4.0 04:52:10 10° NW 04:56:51 36° WSW 05:01:29 10° SSW
PAYLOAD B 4.5 04:52:29 10° NNE 04:58:05 74° ESE 05:03:40 10° S
Cosmos 1844 Rocket 4.0 04:56:40 10° WSW 05:01:28 27° NW 05:06:16 10° N
Cosmos 1850 Rocket 4.4 04:59:30 10° NNW 05:04:24 42° WSW 05:09:20 10° S
CZ-4B R/B 3.5 05:00:35 10° NNE 05:05:09 70° ESE 05:09:36 10° S
BREEZE-M DEB (TANK) 2.2 05:02:53 11° SW 05:05:25 49° SSE 05:08:37 10° ENE
Timation 2 Rocket 3.9 04:59:21 10° NNW 05:05:29 71° WSW 05:11:25 10° SSE
Cosmos 1741 Rocket 4.4 05:00:38 10° NNW 05:05:36 42° WSW 05:10:30 10° S
Okean-O 3.9 05:06:59 10° NNE 05:11:13 42° E 05:15:24 10° S
Cosmos 2061 Rocket 4.1 05:06:54 10° SSW 05:13:12 75° W 05:19:37 10° N
Cosmos 1315 Rocket 3.3 05:09:41 10° SSW 05:13:37 44° WNW 05:17:31 10° N
Meteor 1-12 Rocket 4.4 05:09:47 10° S 05:15:42 86° WNW 05:21:31 10° N
CZ-4B DEB 4.3 05:10:20 10° NNE 05:15:56 90° WNW 05:21:30 10° SSW
Cosmos 2297 3.8 05:12:17 10° SSW 05:17:55 74° WNW 05:23:38 10° NNE
Okean 2 4.4 05:16:07 10° NNW 05:19:38 28° W 05:23:09 10° SSW
Cosmos 2278 Rocket 3.0 05:15:13 10° SW 05:20:26 37° WNW 05:25:42 10° N
SL-16 R/B 3.6 05:17:35 10° SSW 05:22:31 24° W 05:27:28 10° NW
CZ-3 Stage 3 4.3 05:33:33 10° WSW 05:58:07 41° S 06:03:36 10° ESE
